MSR274 HECA-HELX

Flight info

Callsign MSR274
Flight time 0h 50m
Altitude 33000
Route CVO A727 LXR
Aircraft A21N/M-SDE3FGHIRWY/LB1

Departure

Time 2026-05-04 12:21
Airport Cairo International Airport (HECA)

Arrival

Time 2026-05-04 13:11
Airport Luxor International Airport (HELX)
Time Latitude Longitude Altitude Speed Heading
2026-05-04 11:50 30.10746 31.39698 386 ft 0 kts 253°
2026-05-04 12:04 30.10747 31.39702 386 ft 2 kts 254°
2026-05-04 12:04 30.10751 31.39719 386 ft 2 kts 253°
2026-05-04 12:05 30.10756 31.39736 386 ft 2 kts 253°
2026-05-04 12:05 30.10759 31.39748 386 ft 2 kts 252°
2026-05-04 12:05 30.10769 31.39765 386 ft 2 kts 220°
2026-05-04 12:05 30.10783 31.39776 386 ft 2 kts 196°
2026-05-04 12:06 30.10800 31.39778 386 ft 2 kts 173°
2026-05-04 12:06 30.10807 31.39776 386 ft 1 kts 163°
2026-05-04 12:06 30.10810 31.39775 386 ft 0 kts 165°
2026-05-04 12:14 30.10775 31.39785 386 ft 11 kts 166°
2026-05-04 12:15 30.10674 31.39816 386 ft 21 kts 166°
2026-05-04 12:15 30.10523 31.39863 386 ft 20 kts 154°
2026-05-04 12:15 30.10517 31.40000 386 ft 19 kts 51°
2026-05-04 12:15 30.10607 31.40119 386 ft 21 kts 48°
2026-05-04 12:16 30.10712 31.40252 386 ft 23 kts 50°
2026-05-04 12:16 30.10829 31.40412 386 ft 27 kts 49°
2026-05-04 12:16 30.10960 31.40588 386 ft 30 kts 49°
2026-05-04 12:16 30.11087 31.40755 386 ft 26 kts 49°
2026-05-04 12:17 30.11205 31.40910 386 ft 25 kts 50°
2026-05-04 12:17 30.11318 31.41060 386 ft 24 kts 49°
2026-05-04 12:17 30.11424 31.41208 386 ft 19 kts 64°
2026-05-04 12:17 30.11413 31.41344 386 ft 16 kts 62°
2026-05-04 12:18 30.11488 31.41447 386 ft 16 kts 48°
2026-05-04 12:18 30.11576 31.41565 386 ft 24 kts 49°
2026-05-04 12:18 30.11702 31.41731 386 ft 27 kts 49°
2026-05-04 12:18 30.11821 31.41892 386 ft 25 kts 49°
2026-05-04 12:19 30.11937 31.42046 386 ft 24 kts 49°
2026-05-04 12:19 30.12047 31.42191 386 ft 24 kts 49°
2026-05-04 12:19 30.12159 31.42339 386 ft 23 kts 49°
2026-05-04 12:19 30.12204 31.42474 386 ft 17 kts 124°
2026-05-04 12:20 30.12110 31.42572 387 ft 19 kts 143°
2026-05-04 12:20 30.12005 31.42528 387 ft 18 kts 230°
2026-05-04 12:20 30.11764 31.42205 387 ft 94 kts 229°
2026-05-04 12:20 30.11160 31.41412 411 ft 161 kts 229°
2026-05-04 12:21 30.10390 31.40373 973 ft 174 kts 235°
2026-05-04 12:21 30.09495 31.39513 1895 ft 177 kts 204°
2026-05-04 12:21 30.08239 31.39563 2602 ft 189 kts 167°
2026-05-04 12:21 30.06932 31.40050 3089 ft 209 kts 164°
2026-05-04 12:22 30.05476 31.40605 3672 ft 227 kts 165°
2026-05-04 12:22 30.03914 31.41163 4281 ft 245 kts 166°
2026-05-04 12:22 30.02195 31.41741 4915 ft 263 kts 167°
2026-05-04 12:22 30.00374 31.42329 5540 ft 280 kts 167°
2026-05-04 12:23 29.98454 31.42938 6382 ft 289 kts 167°
2026-05-04 12:23 29.96545 31.43543 7332 ft 292 kts 168°
2026-05-04 12:23 29.94571 31.44167 8245 ft 296 kts 169°
2026-05-04 12:23 29.92571 31.44795 9118 ft 301 kts 169°
2026-05-04 12:24 29.90540 31.45429 9968 ft 306 kts 170°
2026-05-04 12:24 29.88469 31.46074 10712 ft 315 kts 171°
2026-05-04 12:24 29.86248 31.46759 11213 ft 333 kts 171°
2026-05-04 12:24 29.83972 31.47461 11713 ft 348 kts 171°
2026-05-04 12:25 29.81604 31.48200 12476 ft 354 kts 171°
2026-05-04 12:25 29.79212 31.48950 13311 ft 358 kts 172°
2026-05-04 12:25 29.76792 31.49708 14115 ft 361 kts 172°
2026-05-04 12:25 29.74368 31.50462 14902 ft 365 kts 173°
2026-05-04 12:26 29.71910 31.51225 15675 ft 368 kts 173°
2026-05-04 12:26 29.69442 31.51993 16429 ft 371 kts 173°
2026-05-04 12:26 29.66905 31.52814 17201 ft 375 kts 173°
2026-05-04 12:26 29.64392 31.53641 17941 ft 377 kts 173°
2026-05-04 12:27 29.61862 31.54472 18628 ft 381 kts 173°
2026-05-04 12:27 29.59317 31.55306 19263 ft 385 kts 173°
2026-05-04 12:27 29.56685 31.56167 19926 ft 389 kts 173°
2026-05-04 12:27 29.54107 31.57010 20544 ft 393 kts 173°
2026-05-04 12:28 29.51467 31.57873 21142 ft 397 kts 173°
2026-05-04 12:28 29.48764 31.58755 21752 ft 401 kts 173°
2026-05-04 12:28 29.46067 31.59635 22339 ft 404 kts 173°
2026-05-04 12:28 29.43364 31.60516 22899 ft 408 kts 173°
2026-05-04 12:29 29.40612 31.61414 23488 ft 411 kts 173°
2026-05-04 12:29 29.37866 31.62308 24054 ft 414 kts 173°
2026-05-04 12:29 29.35081 31.63216 24628 ft 417 kts 173°
2026-05-04 12:29 29.32290 31.64126 25171 ft 419 kts 173°
2026-05-04 12:30 29.29481 31.65039 25680 ft 422 kts 173°
2026-05-04 12:30 29.26621 31.65968 26177 ft 426 kts 173°
2026-05-04 12:30 29.23743 31.66904 26654 ft 429 kts 173°
2026-05-04 12:30 29.20887 31.67832 27137 ft 431 kts 173°
2026-05-04 12:31 29.17994 31.68771 27605 ft 433 kts 173°
2026-05-04 12:31 29.15080 31.69717 28036 ft 435 kts 173°
2026-05-04 12:31 29.12148 31.70668 28471 ft 438 kts 173°
2026-05-04 12:31 29.09221 31.71618 28907 ft 439 kts 173°
2026-05-04 12:32 29.06275 31.72574 29362 ft 440 kts 173°
2026-05-04 12:32 29.00342 31.74493 30130 ft 445 kts 173°
2026-05-04 12:32 28.97321 31.75467 30465 ft 447 kts 173°
2026-05-04 12:33 28.94285 31.76434 30827 ft 449 kts 174°
2026-05-04 12:33 28.91203 31.77412 31175 ft 451 kts 174°
2026-05-04 12:33 28.88059 31.78409 31506 ft 454 kts 173°
2026-05-04 12:33 28.84991 31.79383 31797 ft 456 kts 173°
2026-05-04 12:34 28.81904 31.80362 32097 ft 458 kts 173°
2026-05-04 12:34 28.78772 31.81357 32435 ft 459 kts 173°
2026-05-04 12:34 28.75634 31.82354 32819 ft 459 kts 173°
2026-05-04 12:34 28.72486 31.83353 33052 ft 461 kts 173°
2026-05-04 12:35 28.69328 31.84353 33054 ft 461 kts 173°
2026-05-04 12:35 28.62979 31.86366 33063 ft 461 kts 173°
2026-05-04 12:36 28.56575 31.88390 33062 ft 462 kts 173°
2026-05-04 12:36 28.50198 31.90404 33071 ft 462 kts 173°
2026-05-04 12:37 28.43847 31.92409 33069 ft 462 kts 173°
2026-05-04 12:37 28.37560 31.94390 33070 ft 462 kts 173°
2026-05-04 12:38 28.31335 31.96347 33065 ft 463 kts 173°
2026-05-04 12:38 28.25112 31.98305 33068 ft 463 kts 173°
2026-05-04 12:39 28.18909 32.00253 33064 ft 464 kts 173°
2026-05-04 12:39 28.12657 32.02215 33065 ft 462 kts 173°
2026-05-04 12:40 28.06429 32.04165 33073 ft 464 kts 173°
2026-05-04 12:40 28.00233 32.06117 33072 ft 463 kts 172°
2026-05-04 12:41 27.93995 32.08115 33074 ft 464 kts 172°
2026-05-04 12:41 27.87762 32.10111 33073 ft 463 kts 172°
2026-05-04 12:42 27.81522 32.12106 33072 ft 464 kts 172°
2026-05-04 12:42 27.75321 32.14084 33070 ft 464 kts 172°
2026-05-04 12:43 27.69110 32.16065 33068 ft 464 kts 172°
2026-05-04 12:43 27.62865 32.18051 33072 ft 463 kts 172°
2026-05-04 12:44 27.56685 32.20018 33071 ft 462 kts 172°
2026-05-04 12:44 27.50485 32.21985 33072 ft 462 kts 172°
2026-05-04 12:45 27.44254 32.23962 33071 ft 463 kts 172°
2026-05-04 12:45 27.38068 32.25922 33069 ft 464 kts 172°
2026-05-04 12:46 27.31833 32.27898 33070 ft 462 kts 172°
2026-05-04 12:46 27.25624 32.29858 33066 ft 464 kts 172°
2026-05-04 12:47 27.19422 32.31815 33065 ft 463 kts 172°
2026-05-04 12:47 27.13224 32.33773 32827 ft 454 kts 172°
2026-05-04 12:47 27.10211 32.34725 31915 ft 452 kts 172°
2026-05-04 12:48 27.07176 32.35674 30609 ft 457 kts 172°
2026-05-04 12:48 27.04112 32.36628 29225 ft 461 kts 171°
2026-05-04 12:48 27.00996 32.37602 27763 ft 466 kts 171°
2026-05-04 12:48 26.97889 32.38578 26289 ft 469 kts 170°
2026-05-04 12:49 26.94725 32.39571 25422 ft 478 kts 170°
2026-05-04 12:49 26.91437 32.40600 25150 ft 494 kts 170°
2026-05-04 12:49 26.88101 32.41647 24891 ft 500 kts 169°
2026-05-04 12:49 26.84717 32.42714 24634 ft 502 kts 169°
2026-05-04 12:50 26.81349 32.43776 24385 ft 502 kts 169°
2026-05-04 12:50 26.78002 32.44830 24129 ft 501 kts 169°
2026-05-04 12:50 26.74634 32.45889 23873 ft 499 kts 169°
2026-05-04 12:50 26.71305 32.46935 23617 ft 492 kts 169°
2026-05-04 12:51 26.68013 32.47973 23351 ft 475 kts 169°
2026-05-04 12:51 26.64888 32.48958 23099 ft 459 kts 170°
2026-05-04 12:51 26.61822 32.49920 22842 ft 444 kts 170°
2026-05-04 12:51 26.58886 32.50840 22585 ft 431 kts 170°
2026-05-04 12:52 26.56053 32.51723 22321 ft 419 kts 171°
2026-05-04 12:52 26.53284 32.52587 22036 ft 408 kts 171°
2026-05-04 12:52 26.50570 32.53433 21724 ft 399 kts 171°
2026-05-04 12:52 26.47911 32.54259 21348 ft 392 kts 171°
2026-05-04 12:53 26.45277 32.55076 20917 ft 389 kts 171°
2026-05-04 12:53 26.42694 32.55877 20466 ft 386 kts 171°
2026-05-04 12:53 26.40103 32.56681 20005 ft 384 kts 171°
2026-05-04 12:53 26.37502 32.57487 19524 ft 382 kts 171°
2026-05-04 12:54 26.34934 32.58283 19049 ft 380 kts 171°
2026-05-04 12:54 26.32381 32.59075 18587 ft 378 kts 171°
2026-05-04 12:54 26.29837 32.59865 18133 ft 375 kts 171°
2026-05-04 12:54 26.27352 32.60636 17669 ft 373 kts 171°
2026-05-04 12:55 26.24808 32.61425 17204 ft 370 kts 171°
2026-05-04 12:55 26.22276 32.62210 16746 ft 368 kts 171°
2026-05-04 12:55 26.19823 32.62971 16284 ft 366 kts 171°
2026-05-04 12:55 26.17334 32.63743 15819 ft 364 kts 171°
2026-05-04 12:56 26.14883 32.64503 15363 ft 361 kts 171°
2026-05-04 12:56 26.12421 32.65266 14901 ft 359 kts 171°
2026-05-04 12:56 26.10017 32.66011 14464 ft 356 kts 171°
2026-05-04 12:56 26.07617 32.66754 14020 ft 353 kts 171°
2026-05-04 12:57 26.05245 32.67487 13570 ft 350 kts 171°
2026-05-04 12:57 26.02875 32.68220 13122 ft 347 kts 171°
2026-05-04 12:57 26.00526 32.68945 12676 ft 345 kts 171°
2026-05-04 12:57 25.98203 32.69663 12232 ft 342 kts 171°
2026-05-04 12:58 25.95909 32.70372 11795 ft 340 kts 171°
2026-05-04 12:58 25.93595 32.71087 11355 ft 338 kts 171°
2026-05-04 12:58 25.91331 32.71785 10924 ft 335 kts 171°
2026-05-04 12:58 25.89050 32.72488 10490 ft 333 kts 171°
2026-05-04 12:59 25.86828 32.73176 10248 ft 323 kts 171°
2026-05-04 12:59 25.84687 32.73842 10131 ft 309 kts 172°
2026-05-04 12:59 25.82656 32.74471 10007 ft 296 kts 172°
2026-05-04 12:59 25.80658 32.75086 9725 ft 291 kts 172°
2026-05-04 13:00 25.78695 32.75685 9359 ft 290 kts 172°
2026-05-04 13:00 25.76732 32.76265 8980 ft 287 kts 175°
2026-05-04 13:00 25.74748 32.76213 8543 ft 270 kts 204°
2026-05-04 13:00 25.73148 32.75190 8150 ft 258 kts 226°
2026-05-04 13:01 25.71809 32.73828 7774 ft 258 kts 227°
2026-05-04 13:01 25.70439 32.72440 7391 ft 258 kts 226°
2026-05-04 13:01 25.69105 32.71101 7022 ft 258 kts 226°
2026-05-04 13:01 25.67712 32.69713 6649 ft 258 kts 226°
2026-05-04 13:02 25.66362 32.68371 6292 ft 258 kts 226°
2026-05-04 13:02 25.65028 32.67048 5940 ft 258 kts 226°
2026-05-04 13:02 25.63680 32.65714 5590 ft 259 kts 226°
2026-05-04 13:02 25.62331 32.64380 5247 ft 259 kts 226°
2026-05-04 13:03 25.60988 32.63055 4910 ft 259 kts 226°
2026-05-04 13:03 25.59618 32.61701 4569 ft 259 kts 226°
2026-05-04 13:03 25.58272 32.60372 4235 ft 259 kts 226°
2026-05-04 13:03 25.56941 32.59060 3909 ft 259 kts 226°
2026-05-04 13:04 25.55586 32.57721 3579 ft 258 kts 226°
2026-05-04 13:04 25.54245 32.56399 3261 ft 256 kts 226°
2026-05-04 13:04 25.52838 32.55222 3133 ft 249 kts 208°
2026-05-04 13:04 25.51142 32.54828 3128 ft 244 kts 179°
2026-05-04 13:05 25.49531 32.55307 3123 ft 236 kts 150°
2026-05-04 13:05 25.48288 32.56484 3134 ft 230 kts 122°
2026-05-04 13:05 25.47639 32.58056 3145 ft 224 kts 97°
2026-05-04 13:05 25.47621 32.59697 3219 ft 199 kts 74°
2026-05-04 13:06 25.48079 32.61038 3152 ft 173 kts 49°
2026-05-04 13:06 25.48883 32.61934 3114 ft 147 kts 29°
2026-05-04 13:06 25.49747 32.62512 3134 ft 143 kts 21°
2026-05-04 13:06 25.50655 32.62997 3147 ft 143 kts 19°
2026-05-04 13:07 25.51571 32.63446 3167 ft 144 kts 17°
2026-05-04 13:07 25.52474 32.63874 2983 ft 137 kts 17°
2026-05-04 13:07 25.53352 32.64285 2805 ft 135 kts 17°
2026-05-04 13:07 25.54229 32.64692 2632 ft 135 kts 17°
2026-05-04 13:08 25.55102 32.65095 2461 ft 135 kts 17°
2026-05-04 13:08 25.55971 32.65497 2294 ft 134 kts 17°
2026-05-04 13:08 25.56837 32.65896 2126 ft 134 kts 17°
2026-05-04 13:08 25.57701 32.66297 1957 ft 134 kts 17°
2026-05-04 13:09 25.58560 32.66693 1789 ft 134 kts 18°
2026-05-04 13:09 25.59424 32.67093 1616 ft 133 kts 18°
2026-05-04 13:09 25.60285 32.67491 1445 ft 133 kts 18°
2026-05-04 13:09 25.61132 32.67882 1278 ft 133 kts 18°
2026-05-04 13:10 25.62004 32.68293 1102 ft 133 kts 20°
2026-05-04 13:10 25.62859 32.68710 920 ft 132 kts 18°
2026-05-04 13:10 25.63740 32.69087 731 ft 132 kts 19°
2026-05-04 13:10 25.64579 32.69493 601 ft 131 kts 20°
2026-05-04 13:11 25.65433 32.69864 414 ft 130 kts 19°
2026-05-04 13:11 25.66252 32.70246 309 ft 118 kts 22°
2026-05-04 13:11 25.66887 32.70546 303 ft 80 kts 24°
2026-05-04 13:11 25.67280 32.70728 299 ft 35 kts 21°
2026-05-04 13:12 25.67400 32.70715 296 ft 12 kts 296°
2026-05-04 13:12 25.67443 32.70620 295 ft 14 kts 298°
2026-05-04 13:12 25.67488 32.70528 294 ft 10 kts 298°
2026-05-04 13:12 25.67525 32.70453 293 ft 12 kts 299°
2026-05-04 13:13 25.67507 32.70385 291 ft 11 kts 208°
2026-05-04 13:13 25.67432 32.70341 292 ft 12 kts 208°
2026-05-04 13:13 25.67358 32.70302 293 ft 11 kts 206°
2026-05-04 13:13 25.67284 32.70262 293 ft 7 kts 206°
2026-05-04 13:14 25.67254 32.70245 292 ft 5 kts 207°
2026-05-04 13:14 25.67230 32.70219 293 ft 5 kts 257°
2026-05-04 13:14 25.67239 32.70175 293 ft 6 kts 295°
2026-05-04 13:14 25.67263 32.70126 292 ft 7 kts 298°
2026-05-04 13:15 25.67271 32.70109 292 ft 0 kts 299°